EW4196 Weather Reports


Display with metric or nautical units.
time (UTC)temp
F
wind
direction
speed
MPH
gust
MPH
rain 1hr
in
rain 24hr
in
rain mn
in
humidity
%
barometer
mb
20260504070104 67 126 1.0 6.0 0.00 0.00 0.00 51 1009.7
20260504044543 68 129 0.0 2.0 0.00 0.00 0.00 50 1010.8
20260504043041 68 136 0.0 1.0 0.00 0.00 0.00 50 1011.0
20260504041541 69 127 0.0 4.0 0.00 0.00 0.00 49 1011.0
20260504040039 69 136 0.0 2.0 0.00 0.00 0.00 48 1011.1
20260504034542 70 127 0.0 3.0 0.00 0.00 0.00 47 1011.2
20260504033041 70 127 0.0 2.0 0.00 0.00 0.00 46 1011.2
20260504031539 71 118 0.0 3.0 0.00 0.00 0.00 45 1011.1
20260504030042 72 129 1.0 5.0 0.00 0.00 0.00 44 1011.1
20260504024538 72 134 0.0 5.0 0.00 0.00 0.00 43 1010.9
20260504023037 73 131 1.0 6.0 0.00 0.00 0.00 42 1010.9
20260504021537 73 128 0.0 6.0 0.00 0.00 0.00 42 1010.7
20260504020038 74 96 1.0 4.0 0.00 0.00 0.00 41 1010.6
20260504014548 75 134 0.0 3.0 0.00 0.00 0.00 40 1010.6
20260504013035 76 121 0.0 3.0 0.00 0.00 0.00 38 1010.5
20260504011536 77 133 0.0 4.0 0.00 0.00 0.00 36 1010.4
20260504010036 78 131 0.0 4.0 0.00 0.00 0.00 35 1010.6
20260504004535 79 94 0.0 1.0 0.00 0.00 0.00 34 1010.6
20260504003036 79 129 0.0 2.0 0.00 0.00 0.00 32 1010.6
20260504001533 80 134 0.0 3.0 0.00 0.00 0.00 30 1010.6
20260504000031 81 127 0.0 5.0 0.00 0.00 0.00 29 1010.6
20260503234543 82 130 1.0 5.0 0.00 0.00 0.00 27 1010.6
20260503233032 83 136 2.0 6.0 0.00 0.00 0.00 26 1010.7
20260503231529 84 134 1.0 5.0 0.00 0.00 0.00 25 1010.8
20260503230029 86 101 2.0 6.0 0.00 0.00 0.00 26 1010.7
20260503224527 87 123 1.0 6.0 0.00 0.00 0.00 26 1010.6
20260503223028 87 94 0.0 8.0 0.00 0.00 0.00 27 1010.7
20260503221528 87 126 1.0 9.0 0.00 0.00 0.00 24 1010.7
20260503220041 87 129 1.0 7.0 0.00 0.00 0.00 25 1010.9
20260503214523 87 131 1.0 7.0 0.00 0.00 0.00 24 1011.0
20260503213024 87 126 0.0 5.0 0.00 0.00 0.00 26 1011.2
20260503211520 86 120 1.0 7.0 0.00 0.00 0.00 24 1011.4
20260503210015 86 128 1.0 5.0 0.00 0.00 0.00 23 1011.8
20260503204514 86 142 2.0 6.0 0.00 0.00 0.00 26 1012.0
20260503203022 87 130 0.0 3.0 0.00 0.00 0.00 25 1012.3
20260503201512 87 131 1.0 6.0 0.00 0.00 0.00 30 1012.6
20260503200005 86 127 0.0 6.0 0.00 0.00 0.00 31 1013.0
20260503194502 85 131 1.0 5.0 0.00 0.00 0.00 34 1013.3
20260503193111 85 134 0.0 5.0 0.00 0.00 0.00 37 1013.5
20260503191608 85 128 1.0 6.0 0.00 0.00 0.00 36 1013.7
20260503190059 84 135 1.0 5.0 0.00 0.00 0.00 38 1014.0
20260503184606 84 178 0.0 4.0 0.00 0.00 0.00 39 1014.2
20260503183058 83 97 0.0 7.0 0.00 0.00 0.00 42 1014.5
20260503181549 82 127 1.0 6.0 0.00 0.00 0.00 41 1014.7
20260503180044 82 128 0.0 3.0 0.00 0.00 0.00 42 1015.1
20260503174539 81 131 0.0 7.0 0.00 0.00 0.00 43 1015.3
20260503173037 81 134 0.0 9.0 0.00 0.00 0.00 42 1015.7
20260503171534 79 106 0.0 5.0 0.00 0.00 0.00 45 1015.8
20260503081510 46 122 0.0 0.0 0.00 0.00 0.00 87 1018.9